Location: Unspecified
(43.3830°N, 0.0000°E)
Time: 06:08:04
(UTC+00:00)

Vanguard 2 - Pass Details

Date: 20 June 2019
Orbit: 553 x 2938 km, 32.9° (Epoch: 15 July)

Event Time Altitude Azimuth Distance (km) Brightness Sun altitude
Rises 13:37:35 0° 269° (W) 4,660 11.9 61.9°
Reaches altitude 10° 13:40:38 10° 260° (W) 3,985 11.7 61.5°
Maximum altitude 13:50:18 34° 201° (SSW) 3,273 11.8 60.0°
Drops below altitude 10° 14:03:50 10° 145° (SE) 5,579 12.0 57.9°
Sets 14:09:09 0° 137° (SE) 6,737 12.2 57.1°
